Temp
-16 -16 -16 -16 -16 -16 -16 -16 -15 -15 -15 -14 -14 -13 -14 -14 -14 -14 -15 -18 -20 -20 -20 -20 -21 -21 -21 -21 -20 -19 -19 -18 -18 -17 -17 -16 -16 -16 -16 -16 -16 -15 -15 -15
-16 -16 -16 -16 -16 -16 -16 -15 -15 -15 -15 -14 -14 -13 -14 -14 -14 -14 -15 -17 -19 -20 -20 -20 -20 -21 -21 -21 -20 -19 -19 -18 -18 -18 -17 -16 -16 -16 -16 -16 -15 -16 -15 -15
-16 -16 -16 -16 -16 -16 -16 -16 -16 -15 -15 -14 -14 -14 -14 -15 -15 -15 -15 -16 -18 -20 -20 -20 -20 -20 -20 -20 -19 -19 -18 -18 -18 -17 -17 -16 -16 -16 -16 -16 -16 -16 -15 -16
-17 -17 -17 -16 -16 -16 -16 -16 -16 -15 -15 -15 -15 -14 -14 -15 -15 -15 -16 -16 -17 -18 -20 -20 -20 -19 -19 -19 -19 -19 -18 -18 -18 -17 -17 -17 -16 -16 -16 -16 -16 -15 -16 -16
-17 -17 -17 -17 -17 -17 -16 -16 -16 -16 -15 -15 -15 -14 -14 -15 -15 -15 -15 -16 -16 -17 -18 -18 -19 -19 -19 -19 -19 -18 -18 -17 -17 -17 -17 -16 -16 -16 -15 -16 -16 -16 -16 -16
-17 -17 -17 -17 -17 -17 -16 -16 -16 -16 -15 -15 -15 -14 -15 -15 -15 -16 -15 -16 -16 -17 -18 -18 -18 -18 -18 -18 -18 -18 -18 -18 -17 -17 -16 -15 -15 -16 -16 -16 -16 -17 -17 -17
-17 -17 -17 -17 -17 -17 -16 -16 -16 -16 -16 -16 -16 -15 -15 -15 -15 -15 -15 -16 -16 -16 -17 -17 -17 -18 -18 -18 -17 -17 -17 -17 -17 -17 -17 -17 -16 -16 -17 -17 -17 -17 -17 -17
-17 -17 -17 -17 -17 -17 -17 -17 -16 -16 -16 -16 -16 -16 -16 -15 -15 -15 -16 -16 -16 -16 -16 -16 -17 -16 -17 -17 -17 -17 -17 -17 -16 -16 -16 -17 -16 -17 -17 -17 -17 -17 -17 -17
-17 -17 -17 -17 -17 -17 -17 -17 -17 -16 -17 -17 -16 -16 -16 -16 -16 -16 -16 -16 -16 -16 -16 -16 -16 -16 -16 -16 -16 -17 -16 -16 -16 -17 -17 -17 -17 -17 -17 -17 -17 -18 -18 -18
-17 -17 -17 -17 -17 -17 -17 -17 -17 -17 -17 -17 -17 -17 -17 -17 -17 -17 -17 -17 -16 -16 -17 -17 -16 -16 -17 -17 -17 -17 -16 -17 -17 -17 -17 -17 -17 -17 -17 -18 -18 -18 -18 -18
-17 -17 -17 -17 -17 -17 -17 -17 -17 -17 -17 -17 -17 -17 -17 -17 -17 -17 -17 -17 -17 -17 -17 -17 -17 -17 -16 -16 -17 -17 -17 -17 -17 -17 -17 -17 -17 -17 -18 -18 -18 -19 -19 -20
-17 -17 -16 -17 -17 -17 -17 -17 -17 -17 -17 -17 -17 -17 -17 -17 -17 -17 -17 -17 -17 -17 -17 -17 -17 -17 -17 -17 -17 -16 -17 -17 -17 -17 -17 -18 -18 -18 -19 -19 -19 -20 -20 -20
-17 -17 -17 -16 -16 -16 -17 -17 -18 -17 -17 -17 -17 -17 -17 -17 -17 -17 -17 -18 -17 -17 -17 -17 -17 -17 -16 -16 -16 -17 -17 -17 -18 -18 -18 -18 -19 -19 -19 -20 -20 -20 -20 -20
-17 -17 -17 -16 -16 -16 -16 -17 -17 -17 -17 -17 -17 -17 -17 -17 -17 -17 -18 -18 -17 -17 -17 -17 -16 -16 -16 -17 -17 -17 -18 -18 -18 -18 -19 -19 -19 -19 -20 -20 -20 -20 -20 -20
-17 -17 -17 -16 -16 -16 -16 -17 -17 -17 -17 -17 -17 -17 -17 -17 -17 -17 -18 -18 -18 -17 -17 -17 -17 -17 -17 -17 -18 -18 -18 -18 -19 -19 -19 -19 -20 -20 -20 -20 -20 -20 -20 -20
-17 -17 -16 -16 -16 -16 -16 -17 -17 -17 -17 -17 -17 -17 -17 -17 -17 -18 -18 -18 -18 -18 -18 -17 -17 -18 -18 -18 -18 -18 -18 -19 -19 -19 -20 -20 -20 -20 -20 -20 -20 -20 -20 -20
-17 -17 -17 -16 -16 -17 -17 -17 -17 -17 -17 -17 -17 -17 -17 -17 -17 -17 -18 -18 -18 -18 -18 -18 -18 -18 -18 -18 -19 -19 -19 -19 -20 -20 -20 -20 -21 -21 -21 -21 -20 -20 -20 -20
-17 -17 -17 -17 -17 -17 -17 -17 -17 -17 -17 -17 -17 -17 -17 -17 -17 -17 -18 -18 -18 -18 -18 -18 -18 -18 -19 -19 -19 -19 -20 -20 -20 -20 -21 -21 -21 -21 -21 -21 -21 -20 -20 -20
-17 -17 -17 -17 -17 -17 -17 -17 -17 -17 -17 -17 -17 -17 -17 -17 -17 -18 -18 -18 -18 -18 -18 -18 -19 -19 -19 -19 -20 -20 -20 -20 -21 -21 -21 -21 -21 -21 -21 -21 -21 -21 -20 -20
-17 -17 -17 -17 -17 -17 -18 -18 -17 -17 -17 -17 -17 -17 -17 -18 -18 -18 -18 -18 -18 -19 -19 -19 -19 -19 -19 -20 -20 -20 -20 -21 -21 -21 -21 -21 -21 -21 -21 -21 -21 -21 -21 -21
-18 -18 -18 -17 -18 -18 -17 -18 -18 -18 -18 -18 -17 -18 -18 -18 -19 -19 -18 -19 -19 -19 -19 -19 -19 -19 -20 -20 -20 -21 -21 -21 -21 -21 -21 -21 -21 -21 -21 -21 -21 -21 -21 -22
-18 -19 -19 -18 -19 -18 -18 -18 -18 -18 -18 -18 -18 -18 -18 -18 -19 -19 -19 -19 -19 -19 -19 -19 -20 -20 -20 -21 -21 -21 -21 -21 -21 -21 -21 -21 -21 -21 -21 -21 -22 -21 -22 -22
-19 -19 -19 -19 -19 -19 -19 -19 -19 -19 -19 -19 -19 -19 -19 -19 -19 -19 -19 -19 -20 -20 -20 -20 -20 -20 -21 -21 -21 -21 -21 -21 -21 -22 -22 -22 -22 -21 -21 -22 -22 -21 -22 -23
-20 -19 -19 -19 -19 -19 -19 -19 -19 -19 -19 -19 -19 -19 -19 -19 -19 -20 -20 -20 -20 -20 -20 -20 -20 -20 -21 -21 -21 -21 -21 -21 -22 -22 -22 -22 -22 -22 -22 -22 -22 -22 -22 -24
-20 -20 -20 -20 -20 -20 -20 -20 -20 -20 -20 -20 -20 -20 -20 -20 -20 -20 -20 -20 -20 -20 -20 -20 -20 -21 -21 -21 -21 -21 -21 -22 -22 -22 -22 -22 -22 -22 -22 -22 -22 -22 -23 -25
-21 -21 -21 -20 -20 -20 -20 -20 -20 -20 -20 -20 -20 -20 -20 -20 -20 -20 -20 -20 -20 -20 -20 -20 -21 -21 -21 -21 -21 -21 -22 -22 -22 -22 -22 -22 -22 -22 -22 -22 -22 -22 -24 -27
-20 -20 -20 -20 -20 -20 -20 -20 -20 -20 -20 -20 -20 -20 -20 -20 -20 -20 -20 -20 -20 -20 -21 -21 -21 -21 -21 -21 -21 -22 -22 -22 -22 -22 -22 -22 -22 -23 -22 -22 -22 -23 -26 -27
Height
5644 5646 5647 5647 5646 5646 5647 5647 5646 5644 5639 5638 5633 5628 5624 5619 5616 5608 5598 5581 5571 5566 5560 5555 5554 5554 5558 5563 5568 5575 5582 5585 5595 5601 5609 5617 5622 5628 5634 5639 5643 5646 5649 5651
5640 5641 5642 5642 5642 5643 5643 5641 5641 5640 5638 5632 5629 5624 5619 5614 5610 5603 5593 5580 5570 5564 5560 5555 5552 5552 5554 5559 5564 5570 5576 5583 5591 5597 5605 5612 5619 5624 5629 5634 5637 5640 5643 5640
5636 5637 5637 5639 5639 5638 5638 5638 5636 5635 5633 5630 5626 5622 5619 5612 5606 5598 5591 5582 5572 5566 5562 5559 5557 5555 5556 5559 5564 5569 5574 5580 5588 5594 5602 5610 5616 5620 5625 5628 5631 5634 5637 5636
5633 5634 5635 5636 5636 5636 5636 5636 5634 5632 5629 5627 5624 5620 5616 5610 5603 5598 5592 5584 5576 5570 5565 5563 5562 5561 5561 5563 5566 5571 5577 5583 5588 5594 5601 5608 5613 5617 5618 5623 5626 5628 5627 5625
5629 5631 5633 5633 5634 5634 5634 5633 5631 5630 5628 5625 5622 5617 5614 5608 5603 5598 5594 5588 5581 5575 5570 5567 5565 5565 5566 5567 5569 5573 5577 5581 5587 5592 5598 5607 5610 5613 5614 5619 5621 5620 5619 5618
5626 5629 5630 5631 5631 5631 5631 5631 5629 5627 5625 5624 5620 5616 5613 5608 5604 5599 5596 5593 5588 5583 5579 5576 5574 5572 5572 5574 5575 5578 5582 5586 5591 5593 5596 5603 5607 5611 5612 5613 5614 5614 5613 5612
5624 5626 5628 5628 5629 5630 5631 5632 5627 5625 5623 5621 5618 5615 5612 5608 5604 5601 5598 5595 5591 5587 5585 5583 5581 5579 5581 5581 5582 5584 5587 5591 5593 5596 5600 5602 5605 5606 5607 5607 5609 5608 5606 5603
5622 5624 5627 5627 5628 5628 5628 5626 5625 5623 5621 5619 5617 5614 5611 5609 5605 5602 5599 5597 5594 5590 5588 5588 5586 5585 5585 5586 5587 5588 5591 5594 5596 5597 5599 5600 5601 5602 5603 5603 5602 5600 5597 5594
5621 5622 5623 5624 5624 5624 5625 5624 5623 5622 5620 5618 5615 5613 5610 5608 5605 5602 5599 5597 5595 5594 5592 5590 5590 5591 5590 5590 5590 5591 5593 5595 5597 5598 5598 5598 5599 5598 5597 5596 5594 5591 5589 5584
5617 5619 5619 5621 5621 5621 5622 5622 5621 5620 5619 5617 5615 5612 5609 5607 5605 5603 5601 5599 5597 5595 5594 5593 5593 5593 5593 5593 5594 5594 5595 5596 5595 5595 5595 5595 5595 5593 5590 5588 5586 5583 5579 5574
5613 5615 5617 5618 5618 5618 5619 5619 5618 5617 5616 5614 5613 5611 5608 5606 5605 5603 5601 5600 5599 5598 5597 5596 5595 5595 5595 5594 5594 5594 5594 5594 5594 5594 5592 5590 5588 5587 5585 5583 5579 5574 5570 5565
5609 5612 5614 5615 5615 5615 5615 5616 5616 5615 5614 5612 5611 5610 5608 5606 5605 5604 5602 5601 5600 5599 5599 5598 5598 5596 5595 5595 5594 5593 5592 5592 5591 5589 5588 5586 5584 5581 5578 5574 5570 5566 5561 5556
5606 5608 5610 5611 5611 5612 5611 5612 5612 5612 5611 5610 5608 5608 5607 5606 5604 5603 5602 5601 5600 5600 5599 5598 5598 5597 5596 5595 5594 5592 5592 5590 5588 5585 5582 5579 5576 5573 5571 5567 5563 5559 5553 5547
5601 5603 5605 5607 5608 5608 5607 5607 5607 5607 5607 5607 5606 5605 5604 5604 5602 5601 5601 5601 5600 5600 5599 5599 5598 5596 5595 5593 5591 5589 5586 5584 5581 5578 5576 5573 5570 5568 5564 5560 5554 5549 5543 5536
5595 5598 5601 5602 5603 5603 5603 5603 5603 5603 5603 5603 5602 5602 5601 5600 5600 5599 5599 5599 5599 5598 5598 5596 5595 5593 5590 5588 5586 5584 5582 5579 5576 5574 5571 5568 5565 5561 5558 5553 5548 5543 5535 5527
5591 5594 5596 5598 5599 5599 5599 5599 5600 5600 5599 5598 5598 5598 5598 5598 5597 5597 5597 5597 5596 5595 5594 5593 5591 5589 5587 5585 5582 5580 5577 5574 5571 5568 5566 5562 5559 5556 5552 5547 5542 5534 5526 5516
5587 5589 5591 5592 5593 5594 5595 5595 5595 5595 5595 5594 5594 5594 5594 5594 5594 5594 5594 5593 5593 5592 5591 5589 5587 5585 5582 5580 5577 5575 5572 5569 5566 5563 5561 5558 5555 5551 5546 5540 5532 5524 5516 5506
5582 5584 5585 5587 5588 5588 5589 5589 5589 5590 5590 5590 5590 5590 5590 5590 5590 5589 5589 5589 5588 5587 5586 5584 5581 5579 5577 5575 5572 5570 5567 5563 5561 5558 5556 5553 5549 5544 5538 5531 5523 5515 5506 5495
5577 5578 5580 5581 5582 5582 5582 5582 5583 5585 5585 5585 5585 5585 5585 5584 5584 5584 5584 5584 5583 5582 5580 5578 5576 5574 5572 5569 5567 5564 5561 5558 5556 5553 5550 5547 5542 5536 5530 5523 5515 5506 5496 5484
5572 5573 5573 5575 5576 5576 5576 5577 5578 5579 5579 5580 5580 5580 5580 5579 5579 5579 5579 5578 5578 5576 5574 5573 5570 5568 5566 5564 5561 5559 5555 5553 5550 5547 5544 5539 5534 5528 5522 5514 5506 5497 5487 5475
5567 5568 5569 5570 5570 5571 5571 5572 5573 5573 5574 5574 5574 5575 5575 5574 5574 5574 5573 5573 5572 5570 5569 5567 5565 5563 5561 5559 5556 5553 5550 5547 5544 5541 5537 5532 5526 5520 5513 5505 5497 5488 5477 5466
5562 5563 5564 5565 5566 5567 5568 5568 5568 5569 5569 5569 5569 5569 5570 5570 5569 5568 5567 5567 5566 5564 5563 5561 5559 5557 5555 5552 5550 5546 5543 5541 5537 5534 5529 5524 5519 5512 5505 5497 5488 5478 5468 5457
5559 5559 5560 5560 5561 5562 5562 5562 5563 5563 5564 5564 5564 5564 5564 5564 5563 5562 5561 5561 5559 5558 5557 5555 5553 5551 5549 5546 5543 5540 5537 5534 5530 5526 5521 5516 5510 5503 5495 5487 5479 5468 5458 5447
5553 5554 5555 5555 5555 5556 5556 5556 5556 5557 5557 5558 5558 5558 5558 5557 5557 5556 5555 5554 5553 5552 5551 5549 5547 5544 5542 5539 5536 5533 5530 5526 5523 5519 5514 5508 5502 5494 5486 5478 5469 5458 5446 5437
5547 5547 5548 5548 5548 5549 5550 5550 5550 5550 5551 5551 5551 5551 5551 5551 5550 5550 5549 5548 5547 5545 5544 5542 5539 5537 5534 5532 5529 5526 5522 5519 5515 5511 5506 5500 5493 5485 5477 5468 5458 5447 5435 5428
5538 5538 5539 5539 5540 5541 5542 5542 5543 5543 5543 5543 5544 5544 5544 5544 5543 5542 5542 5541 5540 5538 5536 5534 5532 5528 5527 5524 5521 5518 5514 5511 5507 5503 5497 5491 5483 5476 5468 5458 5447 5435 5425 5420
5525 5526 5527 5528 5529 5530 5530 5531 5532 5533 5534 5535 5535 5536 5536 5536 5535 5534 5533 5532 5531 5530 5528 5527 5524 5520 5518 5516 5513 5510 5506 5503 5499 5494 5488 5482 5475 5467 5458 5448 5436 5425 5418 5417
Wind_Speed
13 13 14 15 16 16 14 14 8 13 17 15 21 26 32 32 26 29 36 38 30 22 19 20 20 21 25 27 29 39 36 35 43 46 43 39 41 41 39 35 35 35 35 36
14 15 13 13 13 13 9 8 9 5 13 16 20 25 29 23 20 25 30 34 24 21 12 9 10 11 14 17 17 23 24 28 34 30 29 31 35 33 29 31 29 32 30 28
17 13 12 10 9 7 6 8 9 13 14 14 19 19 21 19 20 22 26 28 27 18 10 3 2 8 12 13 16 18 20 23 24 26 27 28 27 25 28 28 26 29 28 37
15 12 9 7 5 4 7 9 12 14 15 12 16 13 17 21 19 19 24 24 20 16 7 3 2 3 8 18 19 17 16 19 22 24 23 22 24 24 20 22 22 28 32 32
13 10 7 6 6 5 6 10 11 11 10 9 14 12 14 18 16 18 20 22 20 15 10 7 7 7 9 11 15 18 22 23 24 24 23 16 14 17 26 25 23 33 30 38
12 9 6 7 5 4 5 8 10 10 10 9 8 10 7 21 18 14 14 17 17 19 18 17 18 19 18 15 14 14 14 19 22 16 19 16 21 26 28 21 21 26 31 33
11 8 8 8 6 5 5 6 9 10 9 9 7 6 11 13 12 13 10 11 10 13 13 12 10 8 6 9 12 14 8 11 10 13 16 16 11 16 18 20 27 32 33 33
10 11 9 8 6 6 5 6 5 8 10 9 8 9 8 10 11 9 10 8 12 12 4 9 8 12 9 10 6 7 9 5 8 11 14 13 18 20 22 25 27 29 31 34
14 10 8 8 6 5 6 3 2 7 8 10 7 12 12 9 8 11 12 8 7 9 10 15 4 8 11 12 4 2 5 1 3 5 8 11 14 18 21 24 28 30 33 35
14 10 9 7 4 3 4 3 2 6 6 7 9 10 10 12 10 8 8 7 8 8 9 9 8 4 7 8 7 5 3 4 5 8 11 14 18 22 24 26 29 33 35 37
16 13 10 6 4 4 6 7 6 5 7 10 12 10 10 9 10 9 9 8 7 7 6 5 4 3 3 4 5 4 5 7 10 13 17 20 22 23 25 27 28 29 31 35
20 17 13 7 7 10 10 10 9 8 7 9 10 10 10 9 8 10 10 8 8 5 5 5 5 6 6 7 9 10 12 14 16 17 17 18 20 23 24 26 28 32 35 40
19 18 16 13 10 11 11 13 12 10 11 11 11 10 7 9 11 11 10 6 4 4 7 9 9 10 10 10 11 12 13 14 15 17 19 21 23 24 25 27 30 34 38 42
22 20 17 15 13 13 12 12 12 11 12 15 15 10 8 8 13 12 7 4 4 6 9 10 10 10 11 12 14 16 17 18 20 22 23 23 23 25 27 31 34 38 44 50
25 22 19 17 16 14 13 10 11 12 15 13 11 11 8 9 11 13 9 6 7 8 10 12 13 14 16 17 18 18 19 21 23 24 23 23 25 26 29 33 37 43 48 53
22 20 19 19 17 14 13 11 12 13 13 14 11 11 11 8 11 12 11 11 11 13 14 15 16 18 18 19 19 20 22 24 25 23 23 24 26 29 33 37 42 47 51 57
22 20 20 20 18 17 15 15 15 15 14 12 12 11 11 15 14 15 15 15 16 17 17 17 19 20 20 21 21 23 25 26 25 23 24 25 29 33 37 41 46 49 53 56
22 23 21 21 19 19 20 20 18 17 15 14 14 17 18 18 20 19 16 18 18 18 20 20 20 22 22 23 24 25 25 26 24 24 25 28 32 36 40 43 46 49 52 59
21 21 20 19 20 21 22 22 22 20 17 16 17 18 18 18 17 16 15 17 19 19 20 21 23 23 24 23 24 24 26 25 25 26 28 30 34 37 40 44 46 49 56 62
20 20 20 19 18 19 18 16 19 21 18 19 17 17 16 14 13 15 17 18 19 20 22 23 23 23 23 23 24 26 27 25 26 28 30 32 35 38 43 45 47 52 55 64
18 20 19 16 18 20 18 20 20 19 21 17 17 17 15 15 15 16 19 20 21 21 22 23 23 22 23 25 26 28 27 27 28 30 32 35 37 40 44 46 48 53 56 60
19 17 16 16 18 22 21 21 23 22 18 17 17 18 19 19 19 20 20 20 21 22 22 22 22 23 25 26 28 28 28 29 30 31 33 36 37 41 43 48 50 55 58 54
11 15 18 20 22 22 21 20 21 21 20 20 21 22 22 21 21 20 20 20 20 21 22 23 25 25 27 28 29 29 29 30 32 33 35 37 40 43 44 49 52 57 62 46
17 17 16 16 16 18 20 21 21 21 21 20 21 21 21 22 23 23 22 21 22 23 24 25 26 27 28 29 30 31 31 32 34 35 37 39 41 43 47 50 55 61 61 36
26 25 25 24 23 22 21 21 20 20 20 20 20 21 21 22 23 24 25 24 25 26 26 27 28 28 30 31 32 33 33 33 35 37 38 40 42 44 49 53 58 61 54 25
31 30 31 31 32 32 31 30 29 27 26 25 25 25 24 24 25 25 26 27 28 28 28 29 30 31 32 33 34 35 34 33 35 36 38 40 43 47 51 56 61 62 42 17
41 40 38 38 37 35 35 35 36 36 35 33 31 30 29 30 31 30 30 30 31 31 30 30 31 35 34 34 34 34 32 32 34 36 38 40 43 48 54 60 62 53 26 14
Wind_Direction
237 238 250 261 265 270 281 286 285 284 311 319 317 315 314 316 315 322 324 324 313 315 305 286 258 249 233 234 240 232 235 237 234 226 232 237 233 232 235 239 244 250 256 258
241 250 260 260 259 269 271 279 300 329 326 323 322 328 328 319 323 328 332 341 334 314 323 310 256 231 214 204 206 217 224 221 223 221 228 231 230 229 233 239 242 248 260 248
249 256 253 251 255 263 281 308 320 325 329 328 325 339 326 317 336 339 340 343 349 354 333 323 145 160 163 161 183 191 197 195 202 207 210 215 218 223 228 234 240 242 260 260
246 243 245 255 222 265 294 314 312 316 323 327 338 325 342 338 348 346 358 1 353 359 8 340 294 170 163 168 169 168 184 191 190 191 194 204 213 218 220 226 228 253 260 268
240 232 234 214 227 268 297 310 311 309 322 336 342 342 349 355 354 351 356 15 31 39 37 61 96 121 144 157 162 172 174 175 173 185 172 186 217 237 235 240 253 257 270 275
226 224 219 219 225 259 295 304 312 321 311 305 346 355 329 343 1 5 5 12 35 47 62 69 80 85 92 97 118 133 155 172 171 197 214 195 231 232 233 234 262 269 284 287
218 219 229 225 246 233 240 294 291 315 321 301 327 360 14 359 351 13 7 7 27 29 40 59 64 83 103 127 134 154 182 188 204 200 204 227 251 234 276 259 263 273 281 281
206 218 224 225 231 225 222 236 290 320 322 327 334 344 351 7 5 346 350 20 33 13 58 50 93 81 91 113 125 157 164 133 207 237 250 263 267 262 274 274 274 279 284 286
210 210 210 203 214 210 197 198 308 329 323 334 348 358 345 345 350 7 12 7 347 12 24 39 83 90 85 64 82 216 151 341 242 248 252 264 275 279 282 284 289 293 294 297
201 200 191 205 213 203 208 233 280 308 329 338 341 344 340 339 333 348 357 11 31 39 48 65 64 54 66 79 101 124 190 253 292 299 295 288 286 291 298 300 300 300 300 301
200 198 199 240 255 273 247 245 257 281 311 324 326 332 340 337 338 343 338 341 3 19 40 50 67 60 44 33 20 360 332 314 302 297 298 302 303 301 297 295 299 306 310 312
207 208 224 248 270 286 270 257 264 286 301 307 310 309 309 312 319 323 319 323 335 8 31 25 14 2 351 339 331 328 321 311 303 299 298 298 302 307 310 312 315 316 316 316
209 220 229 244 270 290 285 263 257 274 286 303 302 301 297 298 301 310 304 311 341 332 329 330 330 329 324 320 310 305 301 303 308 310 313 317 317 316 315 316 317 317 317 316
213 223 236 248 268 284 289 280 268 271 285 289 298 289 276 288 280 286 261 244 298 316 319 321 320 316 312 314 317 320 323 322 322 321 319 318 315 316 318 319 319 319 320 321
219 224 237 249 264 274 277 277 272 276 287 287 282 261 263 282 272 261 238 249 291 300 310 314 316 320 322 321 320 319 321 323 322 319 316 315 316 317 318 317 317 319 322 323
221 224 237 248 260 261 268 268 266 282 281 291 263 255 251 279 266 244 247 256 274 296 305 307 313 315 316 317 316 318 321 320 320 315 314 314 316 316 314 315 318 322 325 327
222 232 241 249 258 259 264 266 262 273 274 279 255 252 251 280 284 269 256 262 277 289 296 304 306 310 314 313 313 314 315 316 315 312 312 314 314 313 314 317 322 325 329 330
230 236 250 252 255 259 264 261 259 265 268 263 252 256 265 274 276 275 267 271 284 293 298 300 304 306 307 308 309 310 311 313 310 310 311 312 313 316 319 322 325 328 330 333
234 244 247 251 259 266 269 260 250 257 263 254 251 259 268 272 273 270 272 277 286 291 295 298 300 300 303 305 307 308 310 309 308 308 310 312 317 319 322 325 327 329 331 337
244 247 250 257 257 255 259 260 252 259 257 253 267 267 260 257 260 269 275 279 286 291 292 294 296 298 302 306 306 309 309 306 307 308 310 315 318 319 324 325 328 329 335 339
241 244 242 239 246 255 256 252 259 262 271 258 253 253 255 259 263 269 276 282 284 286 290 294 296 300 303 305 307 309 305 305 306 308 312 316 319 321 323 326 327 330 333 338
213 221 237 236 231 232 232 229 241 257 254 253 253 254 256 260 267 271 274 278 285 290 292 294 295 299 304 305 308 307 303 304 305 307 312 316 320 322 323 326 327 330 333 337
223 223 218 217 218 220 225 230 237 241 244 250 254 259 262 266 267 270 271 282 286 289 292 294 296 299 304 306 307 305 301 302 304 306 312 317 319 321 324 326 330 330 333 333
255 250 247 246 248 250 247 244 245 248 252 255 259 263 266 271 272 272 274 280 286 289 292 295 297 298 302 304 304 304 301 302 305 308 312 317 319 320 324 326 330 332 332 326
264 262 261 260 260 262 264 266 267 268 268 266 266 266 267 270 272 274 276 279 283 286 290 294 296 297 297 300 300 303 303 302 306 308 312 317 318 322 324 328 329 332 332 310
262 262 265 265 264 264 263 263 264 265 265 266 268 271 272 272 274 276 279 280 280 284 287 290 293 294 298 301 303 304 303 302 305 309 314 316 318 322 326 328 331 331 326 283
264 263 261 262 263 264 264 264 262 262 264 265 266 269 274 276 276 277 277 280 281 282 285 290 291 291 297 301 303 304 301 302 306 312 314 316 320 325 329 332 334 333 319 263